User: anonymous   Login
Location: Newark
(43.0000°N, 1.6781°W)
Time: 02:51:42
(UTC+00:00)
Language:

Transit 2A - Orbit

View from above orbital plane
View from above orbital plane
View from above satellite
View from above satellite

Ground track
Ground track

The orbit data is extracted from the following two-line orbital elements,

1 00045U 60007A   22267.50761342  .00000093  00000-0  50449-4 0  9997
2 00045  66.6969 355.8812 0247675  71.6199 291.1661 14.33906695184688
Epoch (UTC): 24 September 2022 12:10:57
Eccentricity: 0.0247675
inclination: 66.6969°
perigee height: 601 km
apogee height: 956 km
right ascension of ascending node: 355.8812°
argument of perigee: 71.6199°
revolutions per day: 14.33906695
mean anomaly at epoch: 291.1661°
orbit number at epoch: 18468

The dashed part of the orbit path shows where the satellite is in the earth's shadow,  

DLR